| time (UTC) | temp F | wind direction | speed knots | gust knots | rain 1hr in | rain 24hr in | rain mn in | humidity % | barometer mb |
| 20260505214542 | 78 | 101 | 1.7 | 7.0 | 0.00 | 0.08 | 0.08 | 37 | 1007.5 |
| 20260505213047 | 79 | 226 | 3.5 | 12.2 | 0.00 | 0.08 | 0.08 | 36 | 1007.6 |
| 20260505211536 | 80 | 148 | 2.6 | 16.5 | 0.00 | 0.08 | 0.08 | 36 | 1007.4 |
| 20260505210043 | 80 | 270 | 4.3 | 9.6 | 0.00 | 0.08 | 0.08 | 35 | 1007.4 |
| 20260505204542 | 81 | 305 | 3.5 | 11.3 | 0.00 | 0.08 | 0.08 | 36 | 1007.4 |
| 20260505203039 | 82 | 338 | 2.6 | 9.6 | 0.00 | 0.08 | 0.08 | 36 | 1007.3 |
| 20260505201538 | 82 | 207 | 2.6 | 7.8 | 0.00 | 0.08 | 0.08 | 40 | 1007.3 |
| 20260505200047 | 81 | 15 | 3.5 | 13.0 | 0.00 | 0.08 | 0.08 | 38 | 1007.5 |
| 20260505194546 | 80 | 297 | 5.2 | 13.0 | 0.00 | 0.08 | 0.08 | 33 | 1007.7 |
| 20260505193043 | 80 | 309 | 4.3 | 20.0 | 0.00 | 0.08 | 0.08 | 32 | 1007.8 |
| 20260505191554 | 81 | 316 | 3.5 | 14.8 | 0.00 | 0.08 | 0.08 | 31 | 1008.1 |
| 20260505190039 | 80 | 217 | 4.3 | 13.0 | 0.00 | 0.08 | 0.08 | 34 | 1008.2 |
| 20260505184536 | 80 | 221 | 4.3 | 17.4 | 0.00 | 0.08 | 0.08 | 33 | 1008.6 |
| 20260505183043 | 80 | 218 | 5.2 | 12.2 | 0.00 | 0.08 | 0.08 | 32 | 1008.6 |
| 20260505181542 | 80 | 274 | 4.3 | 13.9 | 0.00 | 0.08 | 0.08 | 35 | 1008.8 |
| 20260505180139 | 79 | 248 | 4.3 | 17.4 | 0.00 | 0.08 | 0.08 | 35 | 1008.9 |
| 20260505174552 | 80 | 179 | 2.6 | 10.4 | 0.00 | 0.08 | 0.08 | 40 | 1009.1 |
| 20260505173046 | 79 | 205 | 4.3 | 13.9 | 0.00 | 0.08 | 0.08 | 39 | 1009.1 |
| 20260505171536 | 79 | 297 | 5.2 | 12.2 | 0.00 | 0.08 | 0.08 | 40 | 1009.1 |
| 20260505170043 | 79 | 255 | 1.7 | 8.7 | 0.00 | 0.08 | 0.08 | 44 | 1009.3 |
| 20260505164543 | 78 | 349 | 2.6 | 9.6 | 0.00 | 0.08 | 0.08 | 43 | 1009.6 |
| 20260505163037 | 77 | 224 | 3.5 | 9.6 | 0.00 | 0.08 | 0.08 | 45 | 1009.9 |
| 20260505161537 | 76 | 304 | 0.9 | 7.8 | 0.00 | 0.08 | 0.08 | 48 | 1010.0 |
| 20260505153042 | 74 | 208 | 2.6 | 7.0 | 0.00 | 0.08 | 0.08 | 50 | 1010.3 |
| 20260505151541 | 73 | 233 | 1.7 | 7.0 | 0.00 | 0.08 | 0.08 | 53 | 1010.4 |
| 20260505124541 | 62 | 126 | 0.0 | 1.7 | 0.00 | 0.08 | 0.08 | 72 | 1011.4 |
| 20260505123037 | 60 | 0 | 0.0 | 2.6 | 0.00 | 0.08 | 0.08 | 77 | 1011.1 |
| 20260505121536 | 59 | 109 | 0.9 | 1.7 | 0.00 | 0.08 | 0.08 | 80 | 1011.1 |
| 20260505120043 | 58 | 96 | 0.0 | 1.7 | 0.00 | 0.08 | 0.08 | 85 | 1011.2 |
| 20260505114543 | 56 | 0 | 0.0 | 0.0 | 0.00 | 0.08 | 0.08 | 90 | 1011.2 |
| 20260505113048 | 55 | 111 | 0.0 | 0.9 | 0.00 | 0.08 | 0.08 | 93 | 1011.0 |
| 20260505111537 | 53 | 79 | 0.0 | 1.7 | 0.00 | 0.08 | 0.08 | 93 | 1010.8 |
| 20260505101558 | 51 | 0 | 0.0 | 0.9 | 0.01 | 0.08 | 0.08 | 92 | 1010.6 |
| 20260505100057 | 51 | 0 | 0.0 | 0.0 | 0.01 | 0.08 | 0.08 | 91 | 1010.4 |
| 20260505094544 | 52 | 0 | 0.0 | 0.9 | 0.06 | 0.08 | 0.08 | 91 | 1010.1 |
| 20260505093037 | 52 | 0 | 0.9 | 2.6 | 0.08 | 0.08 | 0.08 | 91 | 1010.0 |
| 20260505091543 | 52 | 0 | 0.0 | 3.5 | 0.07 | 0.07 | 0.07 | 89 | 1010.2 |
| 20260505090041 | 53 | 136 | 2.6 | 4.3 | 0.07 | 0.07 | 0.07 | 88 | 1010.0 |
| 20260505084538 | 53 | 0 | 0.0 | 0.0 | 0.02 | 0.02 | 0.02 | 85 | 1010.8 |
| 20260505083043 | 54 | 0 | 0.0 | 0.0 | 0.00 | 0.00 | 0.00 | 77 | 1010.9 |
| 20260505081558 | 54 | 0 | 0.0 | 0.0 | 0.00 | 0.00 | 0.00 | 70 | 1010.5 |
| 20260505080051 | 55 | 0 | 0.0 | 0.0 | 0.00 | 0.00 | 0.00 | 69 | 1010.3 |
| 20260505074542 | 55 | 0 | 0.0 | 0.0 | 0.00 | 0.00 | 0.00 | 68 | 1010.0 |
| 20260505073041 | 55 | 0 | 0.0 | 0.0 | 0.00 | 0.00 | 0.00 | 67 | 1009.9 |
| 20260505071542 | 55 | 0 | 0.0 | 0.0 | 0.00 | 0.00 | 0.00 | 67 | 1010.1 |
| 20260505070037 | 55 | 0 | 0.0 | 0.0 | 0.00 | 0.00 | 0.00 | 66 | 1010.2 |
| 20260505064535 | 55 | 0 | 0.0 | 0.0 | 0.00 | 0.00 | 0.00 | 69 | 1010.1 |
| 20260505063048 | 54 | 0 | 0.0 | 0.0 | 0.00 | 0.00 | 0.00 | 70 | 1010.1 |
| 20260505061545 | 54 | 0 | 0.0 | 0.0 | 0.00 | 0.00 | 0.00 | 69 | 1010.2 |
| 20260505060039 | 54 | 0 | 0.0 | 0.0 | 0.00 | 0.00 | 0.00 | 69 | 1010.2 |
| 20260505054544 | 54 | 0 | 0.0 | 0.0 | 0.00 | 0.00 | 0.00 | 69 | 1010.3 |
| 20260505053048 | 54 | 0 | 0.0 | 0.0 | 0.00 | 0.00 | 0.00 | 68 | 1010.2 |
| 20260505051544 | 54 | 0 | 0.0 | 0.0 | 0.00 | 0.00 | 0.00 | 68 | 1010.3 |
| 20260505041536 | 54 | 0 | 0.0 | 0.0 | 0.00 | 0.00 | 0.00 | 66 | 1010.0 |
| 20260505040046 | 55 | 0 | 0.0 | 0.0 | 0.00 | 0.00 | 0.00 | 65 | 1009.9 |
| 20260505034546 | 55 | 0 | 0.0 | 0.0 | 0.00 | 0.00 | 0.00 | 65 | 1010.0 |
| 20260505033037 | 56 | 0 | 0.0 | 0.0 | 0.00 | 0.00 | 0.00 | 62 | 1009.9 |
| 20260505031543 | 56 | 0 | 0.0 | 0.0 | 0.00 | 0.00 | 0.00 | 61 | 1010.0 |
| 20260505030043 | 58 | 0 | 0.0 | 0.0 | 0.00 | 0.00 | 0.00 | 60 | 1010.1 |
| 20260505024543 | 59 | 0 | 0.9 | 1.7 | 0.00 | 0.00 | 0.00 | 58 | 1010.1 |
| 20260505023055 | 58 | 45 | 0.0 | 1.7 | 0.00 | 0.00 | 0.00 | 57 | 1010.3 |
| 20260505021537 | 59 | 46 | 0.9 | 1.7 | 0.00 | 0.00 | 0.00 | 56 | 1010.3 |
| 20260505020039 | 59 | 0 | 0.9 | 2.6 | 0.00 | 0.00 | 0.00 | 58 | 1010.3 |
| 20260505014550 | 59 | 0 | 0.0 | 1.7 | 0.00 | 0.00 | 0.00 | 56 | 1010.3 |
| 20260505013042 | 60 | 31 | 0.0 | 1.7 | 0.00 | 0.00 | 0.00 | 54 | 1010.2 |
| 20260505011543 | 61 | 26 | 0.0 | 1.7 | 0.00 | 0.00 | 0.00 | 52 | 1010.2 |
| 20260505010104 | 62 | 0 | 0.0 | 0.9 | 0.00 | 0.00 | 0.00 | 50 | 1010.0 |
| 20260505004536 | 62 | 0 | 0.0 | 1.7 | 0.00 | 0.00 | 0.00 | 49 | 1010.0 |
| 20260505003041 | 63 | 0 | 0.0 | 0.9 | 0.00 | 0.00 | 0.00 | 47 | 1009.8 |
| 20260505001535 | 64 | 0 | 0.0 | 2.6 | 0.00 | 0.00 | 0.00 | 46 | 1009.6 |
| 20260505000046 | 66 | 0 | 0.0 | 3.5 | 0.00 | 0.00 | 0.00 | 44 | 1009.4 |
| 20260504234539 | 67 | 212 | 1.7 | 9.6 | 0.00 | 0.00 | 0.00 | 42 | 1009.2 |
| 20260504233036 | 69 | 152 | 1.7 | 6.1 | 0.00 | 0.00 | 0.00 | 40 | 1009.1 |
| 20260504231546 | 71 | 246 | 1.7 | 5.2 | 0.00 | 0.00 | 0.00 | 37 | 1008.8 |
| 20260504230042 | 71 | 230 | 1.7 | 8.7 | 0.00 | 0.00 | 0.00 | 37 | 1008.8 |
| 20260504224543 | 72 | 0 | 1.7 | 6.1 | 0.00 | 0.00 | 0.00 | 37 | 1008.6 |
| 20260504223038 | 72 | 0 | 0.9 | 8.7 | 0.00 | 0.00 | 0.00 | 39 | 1008.7 |
| 20260504221548 | 72 | 214 | 1.7 | 7.8 | 0.00 | 0.00 | 0.00 | 36 | 1008.8 |
| 20260504220046 | 72 | 282 | 3.5 | 8.7 | 0.00 | 0.00 | 0.00 | 35 | 1009.0 |